Manistique, MI

2:25 AM EST on February 07, 2016 (GMT -0500)
Schoolcraft County

Weather History for KISQ - October, 2012

Change the Weather History Date:

Monday, October 8, 2012

  Actual Average Record
Temperature  
Mean Temperature 45 °F -  
Max Temperature 55 °F 54 °F 70 °F (1949)
Min Temperature 35 °F 37 °F 24 °F (1989)
Degree Days  
Heating Degree Days 20    
Moisture  
Dew Point 34 °F    
Average Humidity 57    
Maximum Humidity 72    
Minimum Humidity 39    
Precipitation  
Precipitation 0.00 in - - ()
Sea Level Pressure  
Sea Level Pressure 29.92 in    
Wind  
Wind Speed 10 mph (SSW)    
Max Wind Speed 25 mph    
Max Gust Speed 37 mph    
Visibility 10 miles    
Events Rain    
Averages and records for this station are not official NWS values.
T = Trace of Precipitation, MM = Missing Value Source: NWS Daily Summary

Daily Weather History Graph

Daily Weather History Graph

Search for Another Location

Airport or City:

Trip Planner

Search our weather history database for the weather conditions in past years. The results will help you decide how hot, cold, wet, or windy it might be!

Date:

Astronomy

Oct. 08, 2012 Rise Set
Actual Time 7:52 AM EDT 7:10 PM EDT
Civil Twilight 7:22 AM EDT 7:40 PM EDT
Nautical Twilight 6:48 AM EDT 8:14 PM EDT
Astronomical Twilight 6:13 AM EDT 8:49 PM EDT
Moon 12:10 AM EDT (10/8) 3:19 PM EDT (10/8)
Length of Visible Light 12h 17m
Length of Day
11h 17m
Waning Gibbous, 46% of the Moon is Illuminated
Oct 8
Waning Gibbous
Oct 15
New
Oct 21
First Quarter
Oct 29
Full
Nov 6
Last Quarter

Hourly Weather History & Observations

Time (EDT) Temp. Windchill Dew Point Humidity Pressure Visibility Wind Dir Wind Speed Gust Speed Precip Events Conditions
12:15 AM 42.8 °F 40.1 °F 19.4 °F 39% 29.99 in 10.0 mi WSW 4.6 mph - N/A   Clear
12:34 AM 42.8 °F 39.3 °F 19.4 °F 39% 29.98 in 10.0 mi WSW 5.8 mph - N/A   Clear
12:55 AM 42.8 °F 40.1 °F 21.2 °F 42% 29.98 in 10.0 mi WSW 4.6 mph - N/A   Clear
1:14 AM 42.8 °F 39.3 °F 21.2 °F 42% 29.98 in 10.0 mi West 5.8 mph - N/A   Clear
1:35 AM 42.8 °F 40.1 °F 23.0 °F 46% 29.98 in 10.0 mi WSW 4.6 mph - N/A   Clear
1:55 AM 42.8 °F 40.1 °F 21.2 °F 42% 29.99 in 10.0 mi WSW 4.6 mph - N/A   Clear
2:14 AM 42.8 °F 40.1 °F 21.2 °F 42% 29.99 in 10.0 mi WSW 4.6 mph - N/A   Clear
2:35 AM 41.0 °F 39.0 °F 21.2 °F 45% 29.99 in 10.0 mi WSW 3.5 mph - N/A   Clear
2:54 AM 41.0 °F 39.0 °F 23.0 °F 49% 29.99 in 10.0 mi WSW 3.5 mph - N/A   Clear
3:15 AM 39.2 °F - 24.8 °F 56% 29.98 in 10.0 mi Calm Calm - N/A   Clear
3:35 AM 39.2 °F - 24.8 °F 56% 29.98 in 10.0 mi Calm Calm - N/A   Clear
3:54 AM 35.6 °F - 24.8 °F 65% 29.97 in 10.0 mi Calm Calm - N/A   Clear
4:15 AM 39.2 °F - 26.6 °F 61% 29.97 in 10.0 mi Calm Calm - N/A   Clear
4:34 AM 41.0 °F 39.0 °F 26.6 °F 57% 29.97 in 10.0 mi SW 3.5 mph - N/A   Clear
4:55 AM 41.0 °F 39.0 °F 26.6 °F 57% 29.97 in 10.0 mi WSW 3.5 mph - N/A   Clear
5:15 AM 39.2 °F 37.0 °F 24.8 °F 56% 29.97 in 10.0 mi WSW 3.5 mph - N/A   Clear
5:34 AM 39.2 °F - 26.6 °F 61% 29.97 in 10.0 mi Calm Calm - N/A   Clear
5:55 AM 39.2 °F 37.0 °F 26.6 °F 61% 29.97 in 10.0 mi WSW 3.5 mph - N/A   Clear
6:15 AM 41.0 °F - 28.4 °F 61% 29.97 in 10.0 mi Calm Calm - N/A   Clear
6:34 AM 41.0 °F - 28.4 °F 61% 29.97 in 10.0 mi Calm Calm - N/A   Clear
6:55 AM 41.0 °F 38.0 °F 30.2 °F 65% 29.97 in 10.0 mi SW 4.6 mph - N/A   Clear
7:14 AM 42.8 °F 38.0 °F 30.2 °F 61% 29.97 in 10.0 mi SW 8.1 mph - N/A   Clear
7:35 AM 44.6 °F 38.4 °F 32.0 °F 61% 29.97 in 10.0 mi SW 12.7 mph 18.4 mph N/A   Clear
7:55 AM 44.6 °F 39.2 °F 30.2 °F 57% 29.97 in 10.0 mi SW 10.4 mph - N/A   Clear
8:14 AM 46.4 °F 40.7 °F 30.2 °F 53% 29.97 in 10.0 mi SSW 12.7 mph 20.7 mph N/A   Clear
8:35 AM 46.4 °F 41.1 °F 30.2 °F 53% 29.97 in 10.0 mi SSW 11.5 mph 17.3 mph N/A   Clear
8:55 AM 46.4 °F 40.4 °F 32.0 °F 57% 29.97 in 10.0 mi SSW 13.8 mph 19.6 mph N/A   Clear
9:14 AM 48.2 °F - 32.0 °F 54% 29.96 in 10.0 mi SSW 13.8 mph 20.7 mph N/A   Clear
9:35 AM 48.2 °F - 30.2 °F 50% 29.96 in 10.0 mi SSW 13.8 mph 21.9 mph N/A   Clear
9:54 AM 48.2 °F - 32.0 °F 54% 29.96 in 10.0 mi SSW 16.1 mph 25.3 mph N/A   Clear
10:15 AM 50.0 °F - 32.0 °F 50% 29.95 in 10.0 mi SSW 13.8 mph 23.0 mph N/A   Clear
10:35 AM 51.8 °F - 33.8 °F 50% 29.95 in 10.0 mi SSW 13.8 mph 20.7 mph N/A   Clear
10:54 AM 51.8 °F - 35.6 °F 54% 29.95 in 10.0 mi SW 12.7 mph 24.2 mph N/A   Scattered Clouds
11:15 AM 53.6 °F - 35.6 °F 51% 29.94 in - SW 15.0 mph 23.0 mph N/A   Scattered Clouds
11:34 AM 53.6 °F - 37.4 °F 54% 29.94 in 10.0 mi SSW 11.5 mph 21.9 mph N/A   Mostly Cloudy
11:55 AM - - - N/A% 29.94 in - North - - N/A   Unknown
12:15 PM 53.6 °F - 37.4 °F 54% 29.94 in 10.0 mi SSW 16.1 mph 20.7 mph N/A   Unknown
12:35 PM 53.6 °F - 39.2 °F 58% 29.94 in 10.0 mi SSW 16.1 mph 19.6 mph N/A   Scattered Clouds
12:55 PM 53.6 °F - 37.4 °F 54% 29.93 in 10.0 mi SSW 16.1 mph 24.2 mph N/A   Clear
1:14 PM 55.4 °F - 39.2 °F 54% 29.93 in 10.0 mi SSW 13.8 mph 20.7 mph N/A   Clear
1:35 PM 55.4 °F - 39.2 °F 54% 29.92 in 10.0 mi SSW 15.0 mph 26.5 mph N/A   Clear
1:54 PM 55.4 °F - 39.2 °F 54% 29.91 in 10.0 mi SSW 19.6 mph 27.6 mph N/A   Scattered Clouds
2:15 PM 55.4 °F - 39.2 °F 54% 29.90 in 10.0 mi South 16.1 mph 21.9 mph N/A   Overcast
2:35 PM 55.4 °F - 39.2 °F 54% 29.90 in 10.0 mi South 15.0 mph 25.3 mph N/A   Overcast
2:54 PM 55.4 °F - 39.2 °F 54% 29.89 in 10.0 mi South 19.6 mph 27.6 mph N/A   Overcast
3:15 PM 55.4 °F - 37.4 °F 51% 29.88 in 10.0 mi South 21.9 mph 28.8 mph N/A   Overcast
3:35 PM 55.4 °F - 35.6 °F 47% 29.88 in 10.0 mi South 20.7 mph 34.5 mph N/A   Overcast
3:54 PM 55.4 °F - 37.4 °F 51% 29.87 in 10.0 mi South 23.0 mph 32.2 mph N/A   Overcast
4:15 PM 53.6 °F - 37.4 °F 54% 29.87 in 10.0 mi South 21.9 mph 31.1 mph N/A   Overcast
4:34 PM 53.6 °F - 37.4 °F 54% 29.87 in 10.0 mi SSW 23.0 mph 34.5 mph N/A   Overcast
4:55 PM 53.6 °F - 37.4 °F 54% 29.86 in 10.0 mi South 20.7 mph 33.4 mph N/A   Mostly Cloudy
5:14 PM 53.6 °F - 39.2 °F 58% 29.85 in 10.0 mi South 21.9 mph 31.1 mph N/A   Overcast
5:35 PM 53.6 °F - 37.4 °F 54% 29.85 in 10.0 mi South 19.6 mph 32.2 mph N/A   Mostly Cloudy
5:55 PM 53.6 °F - 39.2 °F 58% 29.85 in 10.0 mi SSW 20.7 mph 32.2 mph N/A   Overcast
6:14 PM 53.6 °F - 39.2 °F 58% 29.85 in 10.0 mi SSW 21.9 mph 32.2 mph N/A   Overcast
6:35 PM 53.6 °F - 39.2 °F 58% 29.85 in 10.0 mi South 23.0 mph 28.8 mph N/A   Overcast
6:55 PM 53.6 °F - 41.0 °F 62% 29.84 in 10.0 mi South 24.2 mph 36.8 mph N/A Rain Light Rain
7:14 PM 53.6 °F - 42.8 °F 67% 29.84 in 10.0 mi South 23.0 mph 29.9 mph N/A   Overcast
7:35 PM 53.6 °F - 42.8 °F 67% 29.83 in 10.0 mi South 19.6 mph 28.8 mph N/A   Overcast
7:54 PM 53.6 °F - 41.0 °F 62% 29.83 in 10.0 mi South 21.9 mph 36.8 mph N/A   Overcast
8:15 PM 53.6 °F - 42.8 °F 67% 29.83 in 10.0 mi South 21.9 mph 35.7 mph N/A   Overcast
8:35 PM 53.6 °F - 41.0 °F 62% 29.83 in 10.0 mi South 25.3 mph 34.5 mph N/A   Overcast
8:54 PM 53.6 °F - 42.8 °F 67% 29.83 in 10.0 mi South 23.0 mph 32.2 mph N/A   Overcast
9:15 PM 53.6 °F - 42.8 °F 67% 29.83 in 10.0 mi South 23.0 mph 32.2 mph N/A   Overcast
9:34 PM 53.6 °F - 44.6 °F 72% 29.83 in 10.0 mi South 18.4 mph 34.5 mph N/A   Overcast
9:54 PM 53.6 °F - 44.6 °F 72% 29.83 in 10.0 mi South 19.6 mph 31.1 mph N/A   Light Drizzle
10:15 PM 53.6 °F - 44.6 °F 72% 29.83 in 10.0 mi SSW 19.6 mph 33.4 mph N/A   Drizzle
10:34 PM 53.6 °F - 44.6 °F 72% 29.83 in 10.0 mi SSW 19.6 mph 34.5 mph N/A   Drizzle
10:55 PM 51.8 °F - 42.8 °F 71% 29.83 in 7.0 mi SSW 23.0 mph 36.8 mph N/A Rain Light Rain
11:15 PM 51.8 °F - 42.8 °F 71% 29.82 in 10.0 mi SSW 20.7 mph 32.2 mph N/A Rain Light Rain
11:55 PM 51.8 °F - 42.8 °F 71% 29.80 in 10.0 mi South 24.2 mph 35.7 mph N/A Rain Light Rain